Wind_Speed
26 26 26 25 24 22 16 9 8 22 25 28 30 25 26 29 31 33 34 34 29 26 22 24 25 25 26 23 21 23 24 26 24 22 20 18 18 17 15 15 14 13 11 11 12 12 11 11 9
30 31 30 31 28 26 18 16 14 23 27 31 23 27 30 32 35 35 33 31 28 29 26 27 26 29 28 24 19 19 22 24 25 25 22 18 17 18 17 16 17 16 14 12 13 13 12 10 11
28 27 28 27 26 22 17 18 15 24 32 30 24 26 27 30 31 32 30 29 29 31 31 31 31 32 32 28 20 18 21 21 23 24 25 22 17 16 18 18 18 18 16 14 12 13 13 11 11
28 28 28 25 23 16 17 24 25 31 34 38 32 30 31 32 30 31 29 29 30 31 28 31 31 32 33 32 25 21 22 23 23 23 23 22 19 17 17 18 20 20 19 17 13 11 13 12 12
31 31 31 30 23 17 12 13 28 35 38 40 41 38 36 35 31 33 28 30 29 30 27 27 31 31 32 32 28 24 24 25 26 25 25 21 20 18 17 17 18 21 20 19 15 12 11 12 12
33 34 34 32 28 26 23 26 27 36 39 37 39 40 35 35 39 36 25 27 29 31 30 28 30 29 31 29 27 27 24 26 26 25 22 19 16 16 16 15 17 18 19 19 17 14 12 11 12
33 35 34 32 30 26 28 27 34 38 40 31 34 33 36 35 39 39 27 24 31 29 30 31 33 31 31 30 28 28 27 27 26 25 23 19 17 16 14 14 14 16 17 18 18 16 14 13 12
30 32 31 27 26 26 34 37 40 41 37 35 33 35 40 40 40 37 33 28 28 35 31 31 34 33 34 34 33 32 30 31 29 25 24 23 22 18 16 14 12 13 15 17 17 16 16 14 14
25 27 24 23 32 35 32 37 40 38 30 28 33 35 36 40 42 41 34 34 37 37 35 35 35 33 34 35 37 37 35 33 31 28 25 21 21 20 19 16 13 13 13 15 16 15 16 16 18
26 22 20 28 34 28 28 26 28 29 28 31 33 37 38 37 41 41 39 37 39 40 39 39 38 38 36 36 37 38 37 36 34 31 28 23 22 20 20 20 17 13 11 11 13 15 17 19 20
19 23 25 25 31 26 27 26 32 35 34 34 35 36 38 41 40 40 41 41 41 42 43 42 42 42 42 40 39 39 39 38 36 35 30 27 24 23 23 20 19 15 13 13 13 13 15 18 20
17 17 20 23 30 31 31 35 37 37 39 41 42 43 42 44 47 50 50 49 45 46 47 46 44 44 46 43 43 42 42 41 38 37 35 31 29 28 27 25 22 20 16 15 14 14 16 18 21
19 17 17 21 23 27 29 29 31 34 38 39 39 41 42 43 44 46 46 48 50 52 51 50 51 49 49 48 43 43 43 42 41 39 36 36 33 30 31 27 24 23 20 17 16 15 16 16 18
21 21 21 24 27 28 30 32 33 35 36 38 40 42 44 49 50 50 50 49 48 48 51 52 52 55 54 54 51 50 47 46 46 42 41 38 37 33 32 28 25 24 25 20 19 19 17 19 15
24 25 27 29 31 32 34 32 31 31 33 37 36 41 45 47 46 48 48 50 51 51 51 53 55 56 56 55 55 54 55 50 49 49 44 42 39 36 32 31 27 26 24 23 21 20 19 21 22
26 30 33 36 39 40 38 37 33 38 43 45 47 49 49 44 44 46 48 50 53 55 55 55 57 58 59 58 56 58 57 56 52 49 48 47 44 41 38 33 29 29 27 25 22 22 20 21 23
32 32 38 42 43 42 42 41 41 43 45 47 48 51 55 58 60 61 59 56 54 55 57 56 57 60 64 63 62 58 61 59 57 58 53 51 49 45 42 35 31 32 31 28 27 25 22 22 23
34 37 40 43 45 47 46 45 47 46 48 48 51 56 57 61 61 61 62 63 64 63 61 62 63 63 64 64 66 65 61 63 62 58 59 56 52 49 46 41 36 33 34 30 28 29 27 25 23
39 38 42 45 44 45 47 46 47 52 52 53 55 54 58 59 61 63 66 67 70 72 76 78 75 74 70 70 69 69 68 64 64 66 62 62 55 52 50 44 39 38 36 33 31 30 29 28 28
44 44 42 45 46 47 41 45 51 53 54 54 53 58 58 61 63 62 59 56 58 56 56 63 71 69 75 78 77 75 72 69 67 68 70 66 50 50 50 50 46 41 39 36 35 32 32 32 32
47 47 47 46 45 46 46 46 49 52 54 52 52 53 55 59 57 43 37 39 44 49 51 50 49 52 55 62 77 81 79 74 71 68 67 66 58 55 57 57 53 46 45 39 37 35 34 34 34
50 47 47 43 44 41 42 42 49 52 49 45 44 50 54 48 43 40 43 44 50 55 52 48 43 46 48 52 52 75 83 79 74 73 69 65 64 62 62 59 59 51 49 43 43 38 39 38 37
49 46 41 41 40 43 36 39 47 48 46 44 43 47 44 44 45 44 48 49 54 54 42 44 49 49 50 55 58 53 78 84 79 75 71 67 68 63 64 66 62 58 53 46 47 42 41 40 40
45 41 41 38 38 42 31 36 48 47 40 39 45 41 42 40 43 45 50 52 54 42 42 43 40 46 51 52 54 55 55 84 84 78 72 69 69 63 66 73 68 63 58 53 50 49 43 43 44
40 40 37 35 37 35 27 37 42 38 36 44 46 40 40 41 41 42 44 50 42 36 37 39 38 45 46 46 47 46 52 70 88 83 75 74 71 64 71 74 81 71 63 62 55 53 47 47 46
43 35 33 32 33 34 32 34 35 30 37 41 37 38 40 46 41 40 45 36 35 31 34 38 33 33 27 24 32 39 45 55 87 86 78 77 75 68 71 38 67 69 66 65 59 55 53 52 50
38 34 28 30 29 32 31 31 33 29 32 36 33 35 41 45 40 38 38 35 29 29 29 31 28 41 33 19 23 30 38 47 76 87 83 79 69 62 70 60 73 66 58 60 68 68 58 57 52
25 28 28 27 31 31 31 34 31 31 35 37 31 33 39 38 34 34 36 34 23 26 20 25 24 30 17 8 10 7 20 34 57 82 83 76 75 73 61 53 35 58 57 51 31 57 53 49 46
26 28 27 27 30 30 31 31 27 28 31 23 26 30 32 28 29 33 32 31 19 20 24 25 25 31 30 4 1 14 5 19 48 63 76 79 63 69 45 39 69 67 60 61 61 61 60 48 42
24 26 28 27 26 30 32 34 29 31 26 24 27 29 29 27 27 28 24 20 18 21 19 19 22 13 32 6 13 14 15 7 27 54 65 76 76 56 69 51 51 42 46 61 61 65 49 41 45
Wind_Direction
264 263 265 267 266 262 271 251 208 263 261 265 268 273 267 258 255 256 268 271 278 285 280 263 268 272 278 281 286 283 284 285 282 282 284 280 272 273 277 279 286 293 306 323 336 330 326 326 324
264 266 268 267 266 265 259 254 262 262 257 258 260 252 261 266 267 266 270 276 283 279 272 268 269 277 274 274 276 275 279 282 284 283 281 280 277 271 270 270 275 282 291 306 322 331 325 323 321
264 263 263 266 264 261 234 216 205 246 255 264 258 259 260 261 265 273 277 274 262 259 264 264 266 271 275 276 265 269 276 278 282 284 285 284 286 280 276 270 268 271 278 288 303 318 326 320 317
263 262 260 259 262 257 265 248 218 229 244 259 260 272 269 266 268 266 268 269 273 274 269 268 265 264 267 270 263 267 270 275 280 285 285 283 282 283 281 280 273 270 272 276 285 298 316 319 315
262 262 262 263 261 253 242 238 254 246 252 255 263 264 263 268 269 265 258 263 264 268 271 270 271 267 264 264 262 267 268 269 273 278 279 279 282 281 282 281 280 274 271 272 271 282 299 313 315
262 262 261 259 252 242 222 217 237 254 252 254 260 262 264 271 271 269 261 263 266 265 268 267 269 270 267 265 263 266 267 268 273 277 279 274 275 279 282 283 279 279 275 270 268 269 281 293 305
263 263 261 262 263 256 237 225 228 243 256 258 260 267 267 264 266 271 273 262 270 266 264 264 267 268 268 270 269 266 266 264 269 272 272 276 277 275 278 280 283 280 277 273 265 263 270 278 289
268 265 266 265 258 232 214 221 246 253 259 262 266 267 269 265 265 267 274 272 261 264 261 258 261 263 265 267 268 266 264 262 263 267 270 266 267 271 273 276 285 294 288 277 270 262 266 273 276
270 270 267 263 265 255 245 238 258 270 287 277 271 264 265 271 276 279 282 276 269 264 261 260 259 259 261 263 265 266 265 262 260 263 266 268 265 265 269 273 278 285 290 281 273 271 273 279 279
273 270 268 265 261 279 279 275 271 270 265 266 266 270 271 268 272 273 272 267 267 266 263 264 261 261 258 258 260 261 262 261 257 257 260 260 258 260 268 274 275 272 278 286 280 274 277 278 281
290 272 265 275 271 270 274 273 274 276 274 274 271 269 272 277 276 274 275 275 273 271 268 263 264 265 261 258 256 258 259 258 257 256 255 257 258 257 265 270 271 267 262 273 279 287 292 290 282
283 281 275 272 276 281 270 262 267 270 274 272 272 270 270 272 272 273 272 271 266 265 264 264 260 258 260 254 252 252 255 257 256 256 255 251 253 257 262 268 266 273 261 259 271 285 280 277 283
298 295 291 283 282 278 278 277 275 273 273 275 275 275 274 274 272 270 271 271 271 270 269 267 265 256 254 254 254 249 254 255 256 256 255 253 251 253 258 264 262 263 261 255 266 281 273 275 290
295 294 294 290 288 286 284 281 278 273 273 274 275 276 275 273 276 278 279 277 275 271 267 267 266 266 261 259 252 252 250 249 252 250 250 251 251 251 253 257 258 257 261 250 254 269 276 272 281
291 292 299 306 305 302 298 291 283 287 284 284 282 280 282 284 283 280 276 272 268 266 265 264 264 262 261 259 259 256 254 243 245 247 250 250 249 250 251 252 252 254 257 258 253 260 272 273 274
286 296 302 306 306 303 296 296 295 294 296 295 292 293 293 292 282 278 276 272 271 269 267 261 259 259 258 257 258 258 254 253 245 242 244 248 246 245 245 247 249 252 254 256 251 253 261 268 271
288 299 302 302 301 299 297 294 295 292 292 290 292 295 295 292 290 287 286 282 278 275 273 269 263 262 259 255 253 252 256 252 255 253 247 244 246 245 243 244 247 247 250 254 254 250 253 260 264
292 292 298 301 304 304 301 299 294 293 290 291 295 293 295 293 293 291 289 288 286 282 275 270 267 260 258 256 253 250 248 252 248 246 247 242 243 245 246 242 245 245 247 249 254 258 253 254 262
281 287 291 295 296 296 294 291 285 287 289 291 291 296 292 296 295 292 290 288 287 284 279 275 268 263 256 253 250 249 245 244 247 246 245 239 235 242 249 248 248 249 248 247 250 256 260 258 258
281 282 285 285 291 293 287 286 287 291 294 293 301 300 300 297 295 294 292 289 287 285 282 279 271 267 256 245 246 244 245 240 240 243 245 255 233 238 246 247 246 250 251 248 247 249 254 257 259
281 282 281 283 285 288 287 289 291 292 294 304 299 300 297 298 298 297 295 297 300 297 290 286 279 276 271 255 240 237 239 240 236 238 241 243 242 241 245 242 245 244 247 247 248 248 252 258 260
278 280 280 280 282 284 286 289 293 296 304 300 301 305 305 305 304 299 296 299 302 303 296 290 281 278 269 266 259 237 230 233 235 232 235 237 239 242 240 244 242 245 246 247 248 246 249 254 260
276 276 277 277 279 283 291 289 293 298 299 303 310 307 307 302 301 299 296 296 301 303 302 291 291 287 278 266 262 256 232 225 229 230 231 233 234 235 238 240 242 242 246 247 252 247 246 250 254
272 273 272 274 278 282 288 289 296 302 304 304 309 300 301 301 299 297 299 296 303 297 306 299 304 286 275 263 270 252 248 222 221 225 226 229 232 231 240 233 236 237 240 243 249 250 247 248 253
266 264 269 272 277 284 275 290 300 300 298 302 296 292 299 307 301 300 299 303 303 298 310 310 298 304 289 273 259 242 238 228 216 219 220 226 228 227 240 227 229 232 233 237 238 245 246 246 250
253 259 263 271 276 285 289 290 293 283 287 291 288 289 303 314 303 306 308 305 309 299 300 319 313 304 300 287 250 236 226 232 214 214 215 221 224 227 235 228 222 234 239 241 236 242 242 242 246
257 256 260 267 276 282 287 283 281 279 286 297 287 291 308 315 310 312 308 307 311 302 321 321 325 314 293 279 288 239 228 231 216 211 213 218 219 227 234 251 224 220 229 251 232 234 235 235 239
259 259 262 272 278 283 284 289 292 295 296 292 285 302 316 314 317 317 312 314 310 323 319 350 345 348 323 300 229 233 232 230 218 212 211 214 220 226 234 224 225 225 237 239 230 213 225 232 238
246 254 263 265 275 282 283 286 299 292 293 285 294 308 316 319 327 318 321 322 302 325 320 323 349 340 356 2 203 224 2 228 214 214 210 209 222 224 232 241 240 253 249 249 227 234 229 235 247
241 250 255 269 275 273 278 278 296 294 288 289 295 308 313 312 325 329 329 342 320 312 323 329 347 331 3 134 103 116 109 153 221 216 211 209 216 232 251 237 257 262 242 230 238 231 232 236 243
Height
5861 5862 5863 5866 5870 5869 5871 5869 5865 5869 5871 5871 5870 5873 5873 5869 5869 5871 5872 5872 5876 5878 5877 5876 5875 5874 5873 5874 5874 5872 5871 5870 5869 5869 5869 5869 5868 5868 5867 5867 5867 5866 5865 5863 5862 5861 5859 5857 5855
5855 5857 5859 5861 5864 5866 5865 5863 5864 5864 5863 5864 5866 5866 5866 5864 5863 5866 5869 5872 5874 5872 5872 5872 5872 5871 5870 5870 5871 5870 5869 5867 5867 5866 5865 5865 5865 5865 5864 5864 5864 5863 5863 5863 5862 5860 5858 5855 5853
5850 5852 5854 5855 5858 5861 5860 5858 5860 5862 5859 5859 5861 5861 5861 5860 5861 5862 5864 5865 5866 5866 5867 5867 5868 5867 5867 5867 5868 5868 5867 5864 5863 5863 5863 5862 5862 5862 5861 5861 5861 5861 5860 5860 5859 5858 5856 5854 5852
5845 5847 5848 5850 5853 5857 5858 5856 5855 5852 5852 5852 5854 5856 5855 5855 5858 5857 5858 5859 5859 5860 5863 5862 5863 5863 5862 5863 5863 5864 5864 5862 5861 5860 5860 5859 5859 5858 5858 5858 5858 5858 5857 5857 5857 5856 5855 5853 5851
5839 5841 5842 5844 5848 5851 5853 5854 5849 5849 5849 5847 5846 5850 5847 5847 5850 5850 5853 5853 5855 5855 5857 5857 5857 5858 5857 5857 5858 5859 5860 5859 5858 5857 5856 5856 5855 5855 5855 5854 5854 5854 5854 5854 5854 5854 5853 5851 5849
5833 5834 5836 5839 5841 5841 5842 5842 5843 5838 5839 5843 5841 5840 5844 5842 5838 5841 5849 5847 5848 5848 5850 5851 5850 5852 5852 5852 5853 5854 5855 5856 5855 5854 5853 5852 5851 5852 5851 5851 5851 5851 5850 5850 5851 5851 5851 5849 5847
5826 5827 5829 5832 5837 5838 5834 5831 5829 5831 5833 5837 5836 5835 5835 5836 5832 5832 5841 5843 5840 5844 5844 5844 5844 5846 5847 5847 5848 5850 5851 5851 5851 5850 5850 5849 5849 5848 5848 5848 5847 5847 5847 5847 5847 5847 5847 5846 5844
5821 5821 5824 5826 5828 5828 5823 5820 5823 5824 5827 5828 5831 5832 5827 5826 5826 5829 5833 5835 5836 5833 5837 5837 5837 5838 5839 5841 5842 5843 5844 5845 5846 5846 5845 5845 5844 5844 5844 5844 5844 5844 5844 5844 5844 5844 5844 5844 5842
5815 5817 5819 5817 5818 5818 5823 5821 5819 5823 5828 5827 5824 5823 5825 5823 5822 5823 5828 5828 5826 5827 5828 5828 5829 5830 5832 5833 5834 5835 5837 5839 5840 5841 5841 5841 5841 5840 5840 5840 5840 5840 5840 5840 5840 5841 5841 5840 5840
5811 5813 5813 5810 5812 5816 5818 5820 5820 5820 5820 5820 5819 5817 5817 5818 5816 5816 5817 5820 5819 5819 5821 5823 5824 5823 5823 5824 5825 5827 5828 5830 5832 5833 5834 5835 5836 5836 5836 5837 5837 5836 5836 5836 5836 5837 5837 5837 5837
5807 5808 5809 5808 5807 5810 5812 5813 5811 5810 5812 5812 5812 5812 5811 5808 5811 5812 5811 5812 5813 5812 5811 5814 5816 5817 5816 5817 5818 5818 5820 5822 5824 5826 5827 5829 5831 5831 5831 5832 5833 5832 5831 5832 5833 5833 5833 5833 5832
5804 5804 5804 5807 5804 5804 5805 5806 5805 5806 5806 5803 5804 5803 5804 5804 5802 5801 5803 5804 5801 5799 5799 5801 5804 5805 5807 5807 5808 5808 5810 5812 5816 5818 5819 5821 5823 5825 5826 5827 5828 5829 5826 5826 5828 5829 5829 5829 5828
5799 5799 5800 5800 5801 5798 5798 5799 5799 5799 5796 5797 5797 5795 5794 5792 5793 5791 5791 5792 5795 5794 5793 5792 5792 5792 5794 5797 5799 5799 5803 5804 5807 5809 5811 5813 5815 5817 5818 5820 5821 5822 5822 5821 5823 5824 5824 5825 5824
5795 5794 5794 5795 5794 5793 5792 5791 5791 5791 5790 5789 5788 5787 5785 5780 5782 5783 5784 5785 5787 5786 5785 5784 5783 5785 5788 5788 5787 5788 5794 5794 5794 5798 5801 5803 5806 5808 5810 5813 5814 5816 5816 5815 5814 5818 5819 5819 5820
5790 5790 5789 5789 5787 5786 5784 5783 5780 5780 5779 5778 5780 5776 5775 5775 5776 5775 5774 5771 5770 5770 5772 5772 5771 5770 5772 5779 5779 5781 5781 5784 5784 5788 5792 5796 5797 5800 5803 5805 5807 5809 5810 5811 5809 5810 5812 5814 5815
5782 5782 5781 5780 5778 5777 5776 5774 5772 5768 5765 5765 5765 5766 5765 5764 5763 5761 5760 5758 5756 5755 5758 5760 5757 5755 5758 5763 5768 5769 5769 5771 5775 5773 5782 5785 5788 5789 5793 5796 5800 5802 5803 5804 5803 5804 5806 5808 5809
5773 5774 5771 5770 5767 5765 5764 5762 5760 5759 5759 5757 5755 5753 5750 5746 5744 5743 5744 5744 5744 5744 5744 5745 5745 5742 5742 5746 5748 5754 5758 5761 5764 5769 5771 5774 5776 5779 5783 5787 5791 5795 5796 5798 5797 5798 5799 5801 5803
5766 5765 5765 5762 5758 5756 5753 5750 5747 5747 5748 5748 5747 5742 5738 5733 5730 5729 5728 5727 5724 5723 5726 5725 5724 5725 5725 5727 5730 5734 5742 5746 5750 5754 5757 5762 5763 5769 5771 5776 5780 5784 5787 5789 5791 5791 5791 5793 5795
5760 5758 5757 5756 5754 5751 5746 5745 5739 5739 5739 5738 5735 5734 5727 5723 5718 5714 5710 5706 5702 5701 5700 5698 5699 5700 5703 5705 5710 5714 5721 5728 5735 5740 5744 5744 5747 5757 5761 5766 5769 5775 5777 5781 5781 5783 5786 5787 5787
5749 5751 5752 5749 5745 5743 5740 5736 5729 5729 5728 5726 5722 5715 5711 5707 5701 5695 5689 5683 5679 5676 5673 5669 5667 5668 5671 5679 5683 5691 5699 5709 5717 5721 5729 5734 5737 5743 5748 5754 5759 5765 5767 5770 5772 5774 5776 5777 5778
5741 5740 5740 5740 5737 5734 5727 5726 5718 5720 5717 5714 5708 5704 5698 5693 5686 5680 5675 5671 5667 5663 5658 5654 5650 5647 5643 5647 5654 5662 5675 5688 5698 5707 5713 5722 5731 5730 5734 5742 5746 5752 5754 5760 5762 5765 5767 5769 5771
5731 5729 5729 5728 5727 5727 5717 5716 5708 5709 5705 5699 5695 5691 5685 5679 5675 5669 5665 5660 5654 5648 5642 5638 5635 5632 5629 5627 5629 5635 5647 5663 5678 5688 5698 5707 5714 5721 5723 5729 5733 5740 5744 5748 5752 5755 5757 5758 5760
5719 5719 5720 5717 5716 5715 5711 5706 5699 5699 5694 5689 5687 5681 5677 5672 5667 5662 5656 5650 5643 5636 5629 5625 5621 5616 5613 5609 5609 5613 5622 5640 5655 5668 5680 5691 5697 5708 5710 5712 5722 5729 5731 5737 5740 5745 5748 5750 5751
5709 5709 5709 5707 5706 5707 5702 5694 5693 5686 5684 5680 5679 5675 5671 5665 5659 5653 5647 5640 5632 5624 5619 5612 5605 5598 5592 5589 5587 5593 5601 5616 5631 5649 5663 5675 5681 5694 5700 5697 5699 5710 5716 5724 5729 5733 5738 5741 5742
5700 5697 5699 5698 5695 5699 5691 5686 5683 5681 5678 5675 5672 5669 5665 5658 5650 5644 5639 5632 5623 5616 5609 5602 5593 5583 5572 5567 5566 5570 5582 5592 5609 5627 5646 5657 5665 5679 5665 5639 5667 5683 5699 5706 5716 5721 5728 5731 5733
5686 5688 5689 5688 5686 5687 5681 5678 5678 5677 5674 5668 5664 5661 5657 5650 5642 5636 5629 5622 5614 5608 5601 5594 5584 5576 5565 5556 5552 5556 5563 5573 5588 5606 5629 5640 5651 5663 5660 5648 5636 5677 5686 5693 5703 5707 5714 5717 5719
5679 5678 5681 5679 5677 5676 5676 5673 5672 5673 5667 5663 5659 5655 5650 5641 5635 5628 5621 5613 5606 5601 5594 5589 5579 5569 5560 5549 5547 5548 5553 5560 5573 5593 5611 5628 5638 5653 5662 5663 5636 5665 5679 5679 5683 5688 5696 5701 5706
5670 5671 5672 5671 5669 5667 5666 5664 5662 5662 5660 5657 5654 5650 5644 5637 5629 5622 5615 5608 5601 5595 5591 5584 5576 5564 5553 5547 5545 5543 5547 5553 5564 5579 5597 5617 5628 5640 5648 5653 5647 5660 5671 5674 5647 5660 5679 5688 5694
5664 5664 5665 5665 5662 5660 5657 5658 5658 5655 5654 5651 5649 5645 5640 5634 5626 5618 5611 5603 5597 5592 5587 5583 5575 5567 5554 5549 5543 5545 5551 5557 5561 5576 5592 5607 5619 5633 5637 5638 5646 5654 5661 5664 5663 5665 5669 5679 5685
5653 5657 5658 5656 5656 5653 5652 5650 5652 5649 5648 5646 5643 5640 5636 5631 5624 5617 5610 5601 5594 5590 5585 5582 5576 5570 5561 5552 5557 5561 5561 5556 5564 5578 5589 5602 5607 5616 5618 5634 5636 5642 5645 5650 5652 5657 5667 5671 5674